Regional Weather Roundup
Issued by NWS

Home | Current Version | Previous Version | Text Only | Print | Product List | Glossary Off
Versions: 1 2 3 4 5 6 7 8 9 10 11 12 13 14 15 16 17 18 19 20 21 22 23 24 25 26 27 28 29 30 31 32 33 34 35 36 37 38 39 40 41 42 43 44 45 46 47 48 49 50

000
ASUS43 KOAX 040502
RWRNE

WEATHER ROUNDUP FOR NEBRASKA
NATIONAL WEATHER SERVICE OMAHA NE
1200 AM CDT SAT JUL 04 2015

NOTES: SATELLITE DATA IS BEING USED TO AUGMENT CLOUD COVER ABOVE
       12000 FEET.
       "FAIR" INDICATES FEW OR NO CLOUDS BELOW 12,000 FEET WITH NO
       SIGNIFICANT WEATHER AND/OR OBSTRUCTIONS TO VISIBILITY.

  * THESE STATIONS DO NOT REPORT WEATHER SUCH AS RAIN...SNOW OR FOG.

NEZ001>004-019>022-054>056-040600-
NEBRASKA PANHANDLE

CITY           SKY/WX    TMP DP  RH WIND       PRES   REMARKS
SCOTTSBLUFF    CLOUDY    72  57  59 SE9       30.03S
ALLIANCE       MOCLDY    65  59  81 S9        30.03S
CHADRON        PTCLDY    69  58  67 CALM      29.96F
KIMBALL          N/A    N/A N/A N/A MISG        N/A
SIDNEY         CLOUDY    69  58  67 SE10      30.08S
$$

NEZ057>060-069>072-079>082-040600-
SOUTHWEST NEBRASKA

CITY           SKY/WX    TMP DP  RH WIND       PRES   REMARKS
NORTH PLATTE   CLEAR     68  61  78 SE8       30.03S
IMPERIAL       PTCLDY    69  60  73 SE12      30.05R
LEXINGTON      CLEAR     66  62  87 SE8       30.04R
MCCOOK         CLEAR     68  60  75 SE6       30.04R
$$

NEZ005>010-023>029-035>040-094-040600-
NORTH CENTRAL NEBRASKA

CITY           SKY/WX    TMP DP  RH WIND       PRES   REMARKS
VALENTINE      CLEAR     68  60  75 SE10      29.99S
AINSWORTH      CLEAR     66  61  82 SE9       30.01S
BROKEN BOW     CLEAR     65  61  87 SE3       30.03R
ORD            CLEAR     67  61  81 SE6       30.00R
$$

NEZ041-046>049-061>064-073>077-083>087-040600-
SOUTH CENTRAL NEBRASKA

CITY           SKY/WX    TMP DP  RH WIND       PRES   REMARKS
GRAND ISLAND   CLEAR     64  61  90 S6        30.03R
AURORA         CLEAR     64  63  96 CALM      30.02R
HASTINGS       CLEAR     67  62  84 SE6       30.03R
KEARNEY *      CLEAR     64  61  88 SE7       30.03S
$$

NEZ011>018-030>034-042>045-040600-
NORTHEAST NEBRASKA

CITY           SKY/WX    TMP DP  RH WIND       PRES   REMARKS
NORFOLK        CLEAR     65  62  90 S7        29.98F
BLAIR          CLEAR     64  56  73 S3        29.99F
COLUMBUS *     CLEAR     61  54  77 CALM      29.97F
FREMONT        CLEAR     68  64  88 CALM      30.00S FOG
TEKAMAH        CLEAR     61  57  87 SW5       29.98S
$$

NEZ050>053-065>068-078-088>093-040600-
SOUTHEAST NEBRASKA

CITY           SKY/WX    TMP DP  RH WIND       PRES   REMARKS
LINCOLN        CLEAR     69  63  81 CALM      30.01R HAZE
OMAHA EPPLEY   PTCLDY    65  59  81 CALM      29.99S
FALLS CITY     CLEAR     67  59  75 CALM      29.99R
PLATTSMOUTH    CLEAR     68  52  57 CALM      30.00S
$$

NEZ044-045-051>053-067-040600-
OMAHA AREA

CITY           SKY/WX    TMP DP  RH WIND       PRES   REMARKS
OMAHA EPPLEY   PTCLDY    65  59  81 CALM      29.99S
BLAIR          CLEAR     64  56  73 S3        29.99F
FREMONT        CLEAR     68  64  88 CALM      30.00S FOG
MILLARD          N/A     63  60  89 CALM      29.99F FOG
OFFUTT AFB     CLEAR     57  56  97 E2        29.99R
PLATTSMOUTH    CLEAR     68  52  57 CALM      30.00S
$$


USA.gov is the U.S. government's official web portal to all federal, state and local government web resources and services.